Location: Arroyo de Valdeoliva
(40.1604°N, 4.9878°W)
Time: 08:07:09
(UTC+00:00)

Cosmos 1825 Rocket - Pass Details

Date: 21 March 2026
Orbit: 596 x 624 km, 82.5° (Epoch: 18 April)

Event Time Altitude Azimuth Distance (km) Brightness Sun altitude
Rises 05:47:28 0° 345° (NNW) 2,888 6.9 -7.4°
Reaches altitude 10° 05:49:47 10° 339° (NNW) 1,974 6.0 -7.0°
Maximum altitude 05:53:55 43° 268° (W) 852 3.9 -6.2°
Drops below altitude 10° 05:57:59 10° 196° (SSW) 1,943 5.9 -5.4°
Sets 06:00:15 0° 190° (S) 2,837 6.8 -5.0°
